[[{"header":{"parameterUnit":"m.s-1","parameterCategory":1,"la1":30.2992,"la2":30.254,"lo1":-89.0895,"lo2":-89.0443,"dy":0.0025,"dx":0.0025,"nx":19,"ny":19,"refTime":"2026-04-10T03:00:00:Z","depth":0,"parameterNumber":2,"parameterNumberName":"U-component_of_WINDS"},"data":[0,0,0,-3.927,-3.9271,-3.9315,-3.9315,-3.938,-3.9381,0,0,0,0,0,0,0,0,0,0,0,-3.9263,-3.9263,-3.927,-3.9271,-3.9315,-3.9315,-3.938,-3.9381,0,0,0,0,0,0,0,0,0,0,0,-3.9262,-3.9263,-3.9264,-3.9271,-3.9314,-3.9315,-3.938,-3.9343,0,0,0,0,0,0,0,0,0,0,-3.93,-3.9298,-3.9263,-3.9264,-3.9272,-3.9314,-3.9315,-3.9342,-3.9346,-3.9365,0,-3.9383,0,-3.9383,-3.9386,-3.9386,0,0,0,-3.9267,-3.9295,-3.9302,-3.9264,-3.9272,-3.9314,-3.9294,-3.9344,-3.9349,-3.937,-3.9384,-3.9386,-3.9384,-3.9386,-3.9387,-3.951,-3.9511,0,0,-3.9264,-3.9273,-3.9298,-3.9305,-3.9299,-3.9292,-3.9295,-3.9347,-3.9361,-3.9384,-3.9387,-3.9385,-3.9387,-3.9387,-3.951,-3.9511,0,0,0,-3.926,-3.9272,-3.9277,-3.9303,-3.931,-3.9294,-3.9297,-3.9359,-3.936,-3.9388,-3.9386,-3.9387,-3.9388,-3.9509,-3.951,-3.9556,0,0,0,-3.9259,-3.9269,-3.9276,-3.9282,-3.9309,-3.9335,-3.9309,-3.9357,-3.9362,-3.9386,-3.9387,-3.9389,-3.9508,-3.9509,-3.9552,-3.9574,0,0,0,-3.9258,-3.9269,-3.9278,-3.9283,-3.9302,-3.9334,-3.9338,-3.9358,-3.9361,-3.9386,-3.9389,-3.9507,-3.9509,-3.955,-3.957,-3.9608,0,0,0,-3.9259,-3.9318,-3.9279,-3.9344,-3.9302,-3.9363,-3.9337,-3.9383,-3.941,-3.9388,-3.9508,-3.951,-3.9549,-3.9567,-3.9605,-3.9639,-3.9655,0,0,-3.9337,-3.9327,-3.9365,-3.9331,-3.9402,-3.9356,-3.9433,-3.9449,-3.9444,-3.9489,-3.9492,-3.9553,-3.9569,-3.9607,-3.9748,-3.9761,0,0,0,-3.9393,-3.9419,-3.9436,-3.9463,-3.9478,-3.9492,-3.9496,-3.9502,-3.954,-3.9469,-3.9579,-3.9589,-3.961,-3.9626,-3.9637,-3.9654,-3.9519,-3.9518,-3.9518,-3.9512,-3.9504,-3.9565,-3.9562,-3.9589,-3.9594,-3.9614,-3.9624,-3.9606,-3.9634,-3.9645,-3.9731,-3.9751,-3.9758,-3.9777,-3.9666,-3.9666,-3.9666,-3.9666,-3.9624,-3.9659,-3.9638,-3.9689,-3.968,-3.9724,-3.9733,-3.9719,-3.9758,-3.9722,-3.974,-3.9698,-3.9773,-3.9788,-3.9669,-3.9669,-3.9668,-3.9668,-3.9668,-3.9698,-3.9713,-3.9722,-3.9761,-3.9792,-3.9789,-3.9828,-3.9819,-3.9811,-3.983,-3.984,-3.984,-3.9835,-3.9837,-3.9837,-3.9837,-3.9838,-3.9838,-3.9838,-3.9769,-3.9778,-3.9811,-3.9835,-3.9852,-3.9873,-3.9882,-3.9899,-3.9914,-3.9905,-3.9905,-3.9884,-3.9783,-3.9756,-3.9842,-3.9842,-3.9841,-3.9841,-3.984,-3.9878,-3.9853,-3.9904,-3.9922,-3.995,-3.9982,-3.9972,-4.0007,-4.002,-4.0039,-4.0017,-3.9945,-3.9933,-3.9924,-3.9901,-4.002,-4.002,-4.002,-4.002,-3.9937,-3.9933,-3.9984,-4.0012,-4.004,-4.0037,-4.0097,-4.0106,-4.0111,-4.0118,-4.0101,-4.0072,-4.0064,-4.0056,-4.0045,-4.0023,-4.017,-4.017,-4.017,-4.0003,-4.0,-4.0051,-4.0057,-4.008,-4.0099,-4.0154,-4.0188,-4.0189,-4.0176,-4.0124,-4.0117,-4.007,-4.0055,-4.0035,-4.0018,-3.9977,0,0]},{"header":{"parameterUnit":"m.s-1","parameterCategory":1,"la1":30.2992,"la2":30.254,"lo1":-89.0895,"lo2":-89.0443,"dy":0.0025,"dx":0.0025,"nx":19,"ny":19,"refTime":"2026-04-10T03:00:00:Z","depth":0,"parameterNumber":3,"parameterNumberName":"V-component_of_WINDS"},"data":[0,0,0,3.257,3.257,3.2581,3.2581,3.257,3.2569,0,0,0,0,0,0,0,0,0,0,0,3.2554,3.2553,3.257,3.257,3.2581,3.2582,3.257,3.2569,0,0,0,0,0,0,0,0,0,0,0,3.2554,3.2553,3.2553,3.257,3.2581,3.2582,3.257,3.257,0,0,0,0,0,0,0,0,0,0,3.2564,3.2536,3.2554,3.2553,3.257,3.2581,3.2582,3.2571,3.257,3.2555,0,3.2539,0,3.2554,3.2567,3.2567,0,0,0,3.2579,3.2536,3.2552,3.2553,3.257,3.2581,3.2579,3.2571,3.257,3.2554,3.2539,3.254,3.2554,3.2567,3.2567,3.2453,3.2452,0,0,3.2579,3.2548,3.2552,3.2551,3.255,3.2578,3.2579,3.2571,3.2552,3.2539,3.254,3.2554,3.2567,3.2567,3.2454,3.2453,0,0,0,3.2571,3.2547,3.2563,3.255,3.2555,3.2579,3.2579,3.2552,3.256,3.254,3.2554,3.2567,3.2566,3.2455,3.2454,3.2377,0,0,0,3.2571,3.2542,3.2562,3.2543,3.2554,3.2554,3.256,3.2561,3.2561,3.2554,3.2567,3.2566,3.2457,3.2455,3.2382,3.2345,0,0,0,3.2557,3.2541,3.2538,3.2542,3.2546,3.2555,3.2563,3.2562,3.2569,3.2567,3.2566,3.2457,3.2455,3.2386,3.2351,3.2306,0,0,0,3.2533,3.2468,3.2537,3.2469,3.2545,3.2509,3.2563,3.2537,3.2526,3.2566,3.2456,3.2454,3.2387,3.2356,3.231,3.2261,3.2238,0,0,3.2433,3.2455,3.2418,3.248,3.2423,3.2509,3.2441,3.2459,3.2485,3.2462,3.246,3.238,3.2352,3.2307,3.2124,3.2106,0,0,0,3.2375,3.2348,3.234,3.233,3.2345,3.2354,3.2387,3.2394,3.2377,3.2468,3.2353,3.2337,3.2312,3.229,3.2274,3.2254,3.2443,3.2443,3.2444,3.2186,3.2228,3.2169,3.2212,3.2202,3.2238,3.2233,3.2249,3.229,3.2263,3.2255,3.214,3.2113,3.2101,3.208,3.2234,3.2234,3.2234,3.2233,3.2043,3.201,3.2072,3.2037,3.208,3.205,3.2083,3.2115,3.2092,3.2148,3.2128,3.2185,3.208,3.2063,3.2228,3.2229,3.223,3.223,3.2231,3.1922,3.1914,3.1927,3.1919,3.1907,3.1953,3.1929,3.1969,3.2006,3.1986,3.1983,3.1984,3.1989,3.1982,3.1982,3.1982,3.1981,3.1981,3.1981,3.1791,3.1808,3.1785,3.1798,3.1798,3.1803,3.1841,3.1841,3.1851,3.1882,3.1882,3.1926,3.2064,3.2096,3.1975,3.1976,3.1976,3.1977,3.1977,3.1627,3.1672,3.1635,3.1636,3.1654,3.164,3.1694,3.1691,3.1698,3.1684,3.1735,3.1831,3.1854,3.1866,3.1894,3.1727,3.1727,3.1727,3.1727,3.1524,3.1542,3.1515,3.1513,3.1516,3.1561,3.1517,3.1546,3.1582,3.1589,3.1619,3.166,3.1671,3.1688,3.1704,3.173,3.1525,3.1525,3.1525,3.1425,3.1445,3.14,3.144,3.1459,3.1473,3.1433,3.1427,3.1477,3.1518,3.1594,3.1603,3.1668,3.1688,3.1727,3.1751,3.18,0,0]}]]